FW1908 Weather Reports


Display with metric or nautical units.
time (UTC)temp
F
wind
direction
speed
MPH
gust
MPH
rain 1hr
in
rain 24hr
in
rain mn
in
humidity
%
barometer
mb
20260906154128 85 117 2.0 8.0 0.00 0.00 0.00 73 1014.1
20260906153627 85 51 2.0 7.0 0.00 0.00 0.00 73 1013.9
20260906153127 84 43 2.0 7.0 0.00 0.00 0.00 73 1013.9
20260906152627 84 135 3.0 8.0 0.00 0.00 0.00 75 1014.0
20260906152127 84 59 3.0 9.0 0.00 0.00 0.00 73 1014.0
20260906151625 84 125 3.0 9.0 0.00 0.00 0.00 75 1014.0
20260906151126 84 91 3.0 8.0 0.00 0.00 0.00 75 1014.0
20260906150620 83 84 1.0 7.0 0.00 0.00 0.00 74 1013.9
20260906150114 83 37 1.0 3.0 0.00 0.00 0.00 74 1014.0
20260906145609 83 40 1.0 3.0 0.00 0.00 0.00 74 1014.1
20260906145103 83 40 1.0 5.0 0.00 0.00 0.00 74 1014.0
20260906144556 83 57 2.0 6.0 0.00 0.00 0.00 74 1013.9
20260906144050 83 42 2.0 6.0 0.00 0.00 0.00 77 1013.9
20260906143802 83 91 3.0 9.0 0.00 0.00 0.00 77 1013.9
20260906143038 82 89 4.0 10.0 0.00 0.00 0.00 77 1013.8
20260906142800 82 117 4.0 10.0 0.00 0.00 0.00 78 1013.9
20260906142026 81 98 3.0 8.0 0.00 0.00 0.00 80 1013.9
20260906141749 81 78 3.0 8.0 0.00 0.00 0.00 80 1013.9
20260906141014 80 92 3.0 8.0 0.00 0.00 0.00 82 1013.8
20260906140508 80 67 2.0 7.0 0.00 0.00 0.00 83 1013.8
20260906140002 79 30 3.0 9.0 0.00 0.00 0.00 86 1013.8
20260906135718 79 119 4.0 10.0 0.00 0.00 0.00 87 1013.8
20260906134950 78 84 3.0 10.0 0.00 0.00 0.00 89 1013.8
20260906134707 77 0 2.0 8.0 0.00 0.00 0.00 89 1013.8
20260906133940 77 112 2.0 8.0 0.00 0.00 0.00 91 1013.7
20260906133432 76 102 2.0 6.0 0.00 0.00 0.00 91 1013.7
20260906132927 76 96 2.0 6.0 0.00 0.00 0.00 92 1013.8
20260906132420 75 109 2.0 6.0 0.00 0.00 0.00 92 1013.7
20260906131914 75 57 2.0 6.0 0.00 0.00 0.00 93 1013.7
20260906131408 75 102 2.0 7.0 0.00 0.00 0.00 93 1013.8
20260906130902 74 57 2.0 7.0 0.00 0.00 0.00 93 1013.7
20260906130616 74 57 2.0 4.0 0.00 0.00 0.00 93 1013.7
20260906125855 74 71 2.0 5.0 0.00 0.00 0.00 94 1013.7
20260906125355 74 50 2.0 5.0 0.00 0.00 0.00 94 1013.6
20260906124855 73 86 2.0 4.0 0.00 0.00 0.00 94 1013.4
20260906124355 73 84 1.0 4.0 0.00 0.00 0.00 94 1013.6
20260906123855 73 84 1.0 4.0 0.00 0.00 0.00 94 1013.5
20260906123353 73 80 1.0 4.0 0.00 0.00 0.00 94 1013.4
20260906122853 73 52 0.0 3.0 0.00 0.00 0.00 94 1013.3
20260906122353 72 299 0.0 0.0 0.00 0.00 0.00 94 1013.3
20260906121853 72 292 0.0 0.0 0.00 0.00 0.00 94 1013.2
20260906121351 72 292 0.0 1.0 0.00 0.00 0.00 93 1013.2
20260906120852 72 292 0.0 1.0 0.00 0.00 0.00 93 1013.1
20260906120351 72 292 0.0 1.0 0.00 0.00 0.00 94 1012.9
20260906115851 71 292 0.0 1.0 0.00 0.00 0.00 93 1012.9
20260906115612 71 292 0.0 1.0 0.00 0.00 0.00 93 1012.7
20260906114850 71 292 0.0 1.0 0.00 0.00 0.00 93 1012.6
20260906114348 71 292 0.0 1.0 0.00 0.00 0.00 93 1012.6
20260906113849 71 292 0.0 0.0 0.00 0.00 0.00 93 1012.4
20260906113608 71 292 0.0 0.0 0.00 0.00 0.00 93 1012.4
20260906112845 71 292 0.0 0.0 0.00 0.00 0.00 93 1012.5
20260906112609 71 292 0.0 0.0 0.00 0.00 0.00 93 1012.6
20260906111844 71 292 0.0 0.0 0.00 0.00 0.00 92 1012.6
20260906111343 71 292 0.0 0.0 0.00 0.00 0.00 92 1012.6
20260906110843 71 292 0.0 0.0 0.00 0.00 0.00 92 1012.6
20260906110341 71 292 0.0 0.0 0.00 0.00 0.00 92 1012.5
20260906105840 71 292 0.0 1.0 0.00 0.00 0.00 93 1012.6
20260906105603 71 292 0.0 1.0 0.00 0.00 0.00 93 1012.4
20260906104840 71 292 0.0 0.0 0.00 0.00 0.00 92 1012.3
20260906104339 71 292 0.0 0.0 0.00 0.00 0.00 92 1012.3
20260906103837 71 292 0.0 1.0 0.00 0.00 0.00 92 1012.3
20260906103335 71 292 0.0 1.0 0.00 0.00 0.00 92 1012.3
20260906102835 71 292 0.0 0.0 0.00 0.00 0.00 92 1012.3
20260906102335 72 292 0.0 0.0 0.00 0.00 0.00 92 1012.3
20260906102100 72 292 0.0 0.0 0.00 0.00 0.00 92 1012.2
20260906101556 72 292 0.0 0.0 0.00 0.00 0.00 92 1012.1
20260906100826 72 292 0.0 0.0 0.00 0.00 0.00 92 1012.0
20260906100325 72 292 0.0 0.0 0.00 0.00 0.00 92 1012.0
20260906095823 72 292 0.0 0.0 0.00 0.00 0.00 92 1012.0
20260906095323 72 292 0.0 0.0 0.00 0.00 0.00 92 1012.0
20260906094821 72 292 0.0 0.0 0.00 0.00 0.00 92 1011.9
20260906094322 72 292 0.0 1.0 0.00 0.00 0.00 92 1011.8
20260906093822 72 292 0.0 1.0 0.00 0.00 0.00 92 1011.7
20260906093321 72 292 0.0 0.0 0.00 0.00 0.00 92 1011.7
20260906092819 72 292 0.0 0.0 0.00 0.00 0.00 92 1011.7
20260906092317 72 292 0.0 0.0 0.00 0.00 0.00 92 1011.6
20260906092034 72 292 0.0 0.0 0.00 0.00 0.00 92 1011.6
20260906091535 72 292 0.0 0.0 0.00 0.00 0.00 92 1011.6
20260906090817 72 292 0.0 1.0 0.00 0.00 0.00 92 1011.7
20260906090533 72 292 0.0 1.0 0.00 0.00 0.00 92 1011.8
20260906085816 72 292 0.0 1.0 0.00 0.00 0.00 92 1011.9
20260906085313 72 292 0.0 1.0 0.00 0.00 0.00 92 1011.8
20260906084813 72 292 0.0 2.0 0.00 0.00 0.00 91 1011.8
20260906084313 72 292 1.0 2.0 0.00 0.00 0.00 91 1011.8
20260906083813 72 292 0.0 2.0 0.00 0.00 0.00 91 1011.8
20260906083534 73 292 0.0 0.0 0.00 0.00 0.00 91 1011.6
20260906082812 73 292 0.0 0.0 0.00 0.00 0.00 91 1011.6
20260906082313 73 292 0.0 1.0 0.00 0.00 0.00 91 1011.6
20260906081813 73 292 0.0 2.0 0.00 0.00 0.00 91 1011.5
20260906081313 73 292 0.0 2.0 0.00 0.01 0.00 91 1011.5
20260906081031 73 292 0.0 1.0 0.00 0.01 0.00 91 1011.4
20260906080309 73 292 0.0 1.0 0.00 0.01 0.00 91 1011.5
20260906075809 73 292 0.0 1.0 0.00 0.02 0.00 91 1011.4
20260906075310 73 292 0.0 1.0 0.00 0.02 0.00 91 1011.4
20260906074809 73 292 0.0 1.0 0.00 0.02 0.00 91 1011.3
20260906074309 73 292 0.0 1.0 0.00 0.02 0.00 90 1011.3
20260906073809 73 292 1.0 2.0 0.00 0.02 0.00 90 1011.2
20260906073308 73 292 1.0 2.0 0.00 0.02 0.00 90 1011.2
20260906072809 73 292 0.0 1.0 0.00 0.02 0.00 90 1011.2
20260906072306 73 292 0.0 1.0 0.00 0.02 0.00 90 1011.2
20260906071805 73 292 0.0 1.0 0.00 0.02 0.00 90 1011.2
20260906071305 73 292 0.0 1.0 0.00 0.02 0.00 90 1011.2
20260906070805 74 292 0.0 2.0 0.00 0.02 0.00 90 1011.4
20260906070305 74 292 0.0 2.0 0.00 0.02 0.00 90 1011.4
20260906065805 74 292 1.0 2.0 0.00 0.02 0.00 90 1011.4
20260906065521 74 292 1.0 2.0 0.00 0.02 0.00 90 1011.3
20260906064802 74 292 0.0 2.0 0.00 0.02 0.00 89 1011.4
20260906064300 74 292 0.0 0.0 0.00 0.02 0.00 89 1011.4
20260906063758 74 292 0.0 1.0 0.00 0.02 0.00 89 1011.4
20260906063258 74 292 1.0 2.0 0.00 0.02 0.00 89 1011.7
20260906063017 74 292 1.0 2.0 0.00 0.02 0.00 89 1011.7
20260906062251 74 292 0.0 2.0 0.00 0.02 0.00 89 1011.7
20260906062006 74 292 0.0 1.0 0.00 0.02 0.00 89 1011.7
20260906061249 74 292 0.0 1.0 0.00 0.02 0.00 89 1011.8
20260906060748 74 292 0.0 1.0 0.00 0.02 0.00 89 1011.8
20260906060248 74 292 0.0 1.0 0.00 0.02 0.00 89 1011.8
20260906055748 74 292 1.0 2.0 0.00 0.02 0.00 89 1011.9
20260906055248 74 292 1.0 2.0 0.00 0.02 0.00 88 1012.0
20260906055004 74 292 1.0 2.0 0.00 0.02 0.00 88 1012.0
20260906054246 74 292 0.0 2.0 0.00 0.02 0.00 88 1012.0
20260906053746 74 292 0.0 1.0 0.00 0.02 0.00 88 1012.0
20260906053504 74 292 1.0 2.0 0.00 0.02 0.00 88 1012.2
20260906052744 74 292 0.0 2.0 0.00 0.02 0.00 88 1012.3
20260906052244 74 292 0.0 1.0 0.00 0.02 0.00 87 1012.2
20260906051742 74 292 0.0 0.0 0.00 0.02 0.00 87 1012.3
20260906051242 74 292 0.0 0.0 0.00 0.02 0.00 87 1012.3
20260906050740 74 292 0.0 0.0 0.00 0.02 0.00 87 1012.3
20260906050240 74 292 0.0 0.0 0.00 0.02 0.00 87 1012.4
20260906045734 74 292 0.0 0.0 0.00 0.02 0.00 87 1012.4
20260906045230 74 292 0.0 0.0 0.00 0.02 0.00 87 1012.4
20260906044730 74 292 0.0 1.0 0.00 0.02 0.00 87 1012.3
20260906044230 74 292 0.0 1.0 0.00 0.02 0.00 87 1012.4
20260906043957 74 292 0.0 1.0 0.00 0.02 0.00 87 1012.4
20260906043228 74 292 0.0 1.0 0.00 0.02 0.00 87 1012.5
20260906042957 75 292 0.0 1.0 0.00 0.02 0.00 87 1012.4
20260906042228 75 292 1.0 2.0 0.00 0.02 0.00 86 1012.5
20260906041944 75 292 1.0 2.0 0.00 0.02 0.00 86 1012.6
20260906041226 75 292 0.0 2.0 0.00 0.02 0.00 86 1012.6
20260906040726 75 292 0.0 1.0 0.00 0.02 0.00 86 1012.7
20260906040226 75 292 1.0 1.0 0.00 0.02 0.00 85 1012.8
20260906035726 75 292 0.0 1.0 0.00 0.02 0.02 85 1012.9
20260906035227 75 292 0.0 1.0 0.00 0.02 0.02 85 1012.9
20260906034725 75 292 1.0 2.0 0.00 0.02 0.02 84 1012.9
20260906034220 75 292 1.0 2.0 0.00 0.02 0.02 84 1012.9
20260906033719 75 292 0.0 1.0 0.00 0.02 0.02 83 1012.8
20260906033219 76 292 0.0 1.0 0.00 0.02 0.02 83 1012.9
20260906032720 76 292 0.0 0.0 0.00 0.02 0.02 82 1013.0
20260906032214 76 292 0.0 1.0 0.00 0.02 0.02 82 1013.1
20260906031712 76 292 0.0 1.0 0.00 0.02 0.02 81 1013.1
20260906031208 76 292 0.0 1.0 0.00 0.02 0.02 81 1013.1
20260906030707 76 292 0.0 1.0 0.00 0.02 0.02 81 1013.1
20260906030204 76 292 0.0 1.0 0.00 0.02 0.02 81 1013.1
20260906025704 76 292 0.0 1.0 0.00 0.02 0.02 81 1012.9
20260906025204 76 292 0.0 1.0 0.00 0.02 0.02 80 1012.8
20260906024702 77 292 0.0 1.0 0.00 0.02 0.02 80 1012.8
20260906024203 77 292 0.0 0.0 0.00 0.02 0.02 79 1012.7
20260906023703 77 292 0.0 1.0 0.00 0.02 0.02 79 1012.4
20260906023200 77 292 0.0 1.0 0.00 0.02 0.02 79 1012.4
20260906022922 77 292 0.0 1.0 0.00 0.02 0.02 78 1012.4
20260906022429 77 292 0.0 0.0 0.00 0.02 0.02 78 1012.4
20260906021701 78 292 0.0 1.0 0.00 0.02 0.02 78 1012.3
20260906021200 78 292 0.0 1.0 0.00 0.02 0.02 77 1012.4
20260906020700 78 292 0.0 1.0 0.00 0.02 0.02 77 1012.5
20260906020201 78 292 1.0 3.0 0.00 0.02 0.02 77 1012.6
20260906015158 78 292 1.0 3.0 0.00 0.02 0.02 76 1012.6
20260906014651 78 292 1.0 2.0 0.00 0.02 0.02 76 1012.3
20260906014146 78 292 1.0 2.0 0.00 0.02 0.02 75 1012.3
20260906013640 79 292 1.0 3.0 0.00 0.02 0.02 75 1012.3
20260906013134 79 292 1.0 3.0 0.00 0.02 0.02 75 1012.3
20260906012628 79 292 1.0 2.0 0.00 0.02 0.02 74 1012.4
20260906012122 79 292 0.0 2.0 0.00 0.02 0.02 74 1012.4
20260906011615 80 292 1.0 3.0 0.00 0.02 0.02 74 1012.3
20260906011110 80 292 1.0 3.0 0.00 0.02 0.02 74 1012.4
20260906010603 80 292 0.0 2.0 0.00 0.02 0.02 74 1012.3
20260906010322 80 292 0.0 2.0 0.00 0.02 0.02 73 1012.3
20260906005551 80 292 0.0 2.0 0.00 0.02 0.02 73 1012.4
20260906005314 81 292 1.0 2.0 0.00 0.02 0.02 72 1012.3
20260906004541 81 292 1.0 2.0 0.00 0.02 0.02 72 1012.1
20260906004034 81 292 0.0 2.0 0.00 0.02 0.02 72 1012.0
20260906003528 81 292 0.0 1.0 0.00 0.02 0.02 72 1012.0
20260906003022 82 292 1.0 2.0 0.00 0.02 0.02 72 1012.0
20260906002516 82 292 1.0 2.0 0.00 0.02 0.02 71 1011.8
20260906002010 82 292 1.0 3.0 0.00 0.02 0.02 71 1011.8
20260906001504 82 292 1.0 3.0 0.00 0.02 0.02 70 1011.8
20260906000958 83 292 1.0 3.0 0.00 0.02 0.02 70 1011.7
20260906000452 83 292 1.0 3.0 0.00 0.02 0.02 70 1011.7
20260905235946 83 292 1.0 3.0 0.00 0.02 0.02 69 1011.7
20260905235701 83 293 1.0 2.0 0.00 0.02 0.02 69 1011.7
20260905234933 84 293 1.0 2.0 0.00 0.02 0.02 68 1011.5
20260905234428 84 293 0.0 1.0 0.00 0.02 0.02 67 1011.5
20260905234153 84 293 0.0 1.0 0.00 0.02 0.02 67 1011.5
20260905233416 84 293 1.0 1.0 0.00 0.02 0.02 66 1011.4
20260905232910 84 293 1.0 1.0 0.00 0.02 0.02 65 1011.2
20260905232404 84 293 0.0 1.0 0.00 0.02 0.02 65 1011.2
20260905231858 84 293 0.0 2.0 0.00 0.02 0.02 65 1011.0
20260905231351 85 293 0.0 2.0 0.00 0.02 0.02 66 1010.9
20260905230846 85 293 0.0 2.0 0.00 0.02 0.02 66 1011.0
20260905230339 85 289 1.0 2.0 0.00 0.02 0.02 67 1010.9
20260905225834 85 289 1.0 2.0 0.00 0.02 0.02 66 1011.0
20260905225328 85 289 0.0 2.0 0.00 0.02 0.02 66 1011.0
20260905224822 85 289 1.0 3.0 0.00 0.02 0.02 66 1011.1
20260905224316 85 289 2.0 4.0 0.00 0.02 0.02 66 1011.1
20260905223809 85 288 2.0 4.0 0.00 0.02 0.02 66 1011.0
20260905223304 85 336 2.0 4.0 0.00 0.02 0.02 67 1010.9
20260905222759 85 336 2.0 4.0 0.00 0.02 0.02 67 1010.8
20260905222515 85 337 2.0 4.0 0.00 0.02 0.02 67 1010.8
20260905222009 85 344 1.0 4.0 0.00 0.02 0.02 67 1010.9
20260905221241 85 344 1.0 3.0 0.00 0.02 0.02 68 1010.9
20260905221000 85 344 2.0 4.0 0.00 0.02 0.02 67 1010.9
20260905215721 85 333 2.0 4.0 0.00 0.02 0.02 67 1010.9
20260905215216 85 329 2.0 5.0 0.00 0.02 0.02 67 1010.9
20260905214710 84 344 2.0 5.0 0.00 0.02 0.02 69 1010.8
20260905214203 84 332 2.0 5.0 0.00 0.02 0.02 69 1010.9
20260905213658 84 332 2.0 4.0 0.00 0.02 0.02 69 1011.0
20260905213151 84 334 2.0 5.0 0.00 0.02 0.02 68 1011.2
20260905212646 84 242 2.0 5.0 0.00 0.02 0.02 69 1011.3
20260905212139 84 327 1.0 3.0 0.00 0.02 0.02 69 1011.6
20260905211853 84 327 2.0 3.0 0.00 0.02 0.02 68 1011.8
20260905211127 84 327 2.0 3.0 0.00 0.02 0.02 67 1012.0
20260905210839 84 327 1.0 3.0 0.00 0.02 0.02 67 1012.0
20260905210116 85 327 1.0 4.0 0.00 0.02 0.02 67 1012.0
20260905205611 85 327 1.0 4.0 0.00 0.02 0.02 66 1012.0
20260905205110 85 254 1.0 3.0 0.00 0.02 0.02 66 1012.1
20260905204607 86 254 1.0 3.0 0.00 0.02 0.02 65 1012.1
20260905204106 86 254 1.0 3.0 0.00 0.02 0.02 64 1011.8
20260905203607 86 254 2.0 3.0 0.00 0.02 0.02 64 1011.7
20260905203332 86 254 3.0 6.0 0.00 0.02 0.02 62 1011.8
20260905202604 87 233 3.0 6.0 0.00 0.02 0.02 61 1011.8
20260905202102 87 302 3.0 6.0 0.00 0.02 0.02 60 1011.6
20260905201559 87 346 3.0 7.0 0.00 0.02 0.02 58 1011.5
20260905201100 89 303 3.0 7.0 0.00 0.02 0.02 56 1011.3
20260905200819 90 10 3.0 7.0 0.00 0.02 0.02 54 1011.6
20260905200058 91 0 3.0 8.0 0.00 0.02 0.02 52 1011.4
20260905195558 93 346 3.0 8.0 0.00 0.02 0.02 50 1011.3
20260905195057 94 72 3.0 8.0 0.00 0.02 0.02 49 1011.3
20260905194558 96 5 3.0 8.0 0.00 0.02 0.02 48 1011.3
20260905194059 97 349 3.0 8.0 0.00 0.02 0.02 46 1011.1
20260905193557 98 344 2.0 8.0 0.00 0.02 0.02 45 1010.8
20260905193058 98 320 2.0 5.0 0.00 0.02 0.02 44 1010.5
20260905192552 98 171 3.0 5.0 0.00 0.02 0.02 44 1010.7
20260905192046 98 183 3.0 7.0 0.00 0.02 0.02 44 1010.8
20260905191546 98 272 3.0 7.0 0.00 0.02 0.02 46 1011.0
20260905191044 99 326 3.0 9.0 0.00 0.02 0.02 43 1011.0
20260905190543 99 235 2.0 9.0 0.00 0.02 0.02 45 1010.8
20260905190039 99 327 2.0 7.0 0.00 0.02 0.02 46 1010.9
20260905185539 99 5 2.0 7.0 0.00 0.02 0.02 46 1011.1
20260905185258 99 16 2.0 6.0 0.00 0.02 0.02 47 1011.1
20260905184537 99 333 2.0 5.0 0.00 0.02 0.02 48 1011.3
20260905184038 99 346 3.0 5.0 0.00 0.02 0.02 46 1011.3
20260905183535 99 320 3.0 7.0 0.00 0.02 0.02 49 1011.3
20260905183035 98 273 3.0 7.0 0.00 0.02 0.02 47 1011.3
20260905182535 99 324 4.0 9.0 0.00 0.02 0.02 46 1011.4
20260905182256 99 319 4.0 9.0 0.00 0.02 0.02 45 1011.4
20260905181754 99 331 4.0 9.0 0.00 0.02 0.02 45 1011.6
20260905181253 99 235 3.0 7.0 0.00 0.02 0.02 47 1011.7
20260905180532 99 327 4.0 11.0 0.00 0.02 0.02 46 1011.8
20260905180031 99 279 4.0 11.0 0.00 0.02 0.02 48 1011.8
20260905175532 99 294 3.0 6.0 0.00 0.02 0.02 48 1012.0
20260905175251 98 317 3.0 9.0 0.00 0.02 0.02 46 1012.2
20260905174532 98 331 3.0 9.0 0.00 0.02 0.02 47 1012.3
20260905174032 98 316 3.0 8.0 0.00 0.02 0.02 48 1012.3
20260905173532 98 258 3.0 8.0 0.00 0.02 0.02 47 1012.5
20260905173032 98 252 3.0 10.0 0.00 0.02 0.02 49 1012.6
20260905172528 98 319 2.0 10.0 0.00 0.02 0.02 47 1012.7
20260905172028 98 337 2.0 4.0 0.00 0.02 0.02 50 1012.7
20260905171527 98 310 2.0 4.0 0.00 0.02 0.02 53 1012.8
20260905170528 97 26 2.0 4.0 0.00 0.02 0.02 52 1013.0
20260905170028 97 342 2.0 4.0 0.00 0.02 0.02 50 1013.1
20260905165528 96 48 2.0 4.0 0.00 0.02 0.02 52 1013.2
20260905165251 96 313 1.0 4.0 0.00 0.02 0.02 52 1013.2
20260905164529 96 17 2.0 4.0 0.00 0.02 0.02 50 1013.3
20260905164027 96 334 2.0 5.0 0.00 0.02 0.02 52 1013.3
20260905163751 96 94 2.0 5.0 0.00 0.02 0.02 54 1013.4
20260905163257 96 102 2.0 5.0 0.00 0.02 0.02 56 1013.5
20260905162751 95 302 2.0 5.0 0.00 0.02 0.02 57 1013.6
20260905162027 94 292 1.0 5.0 0.00 0.02 0.02 57 1013.5
20260905161525 94 241 2.0 4.0 0.00 0.02 0.02 56 1013.6
20260905160523 93 351 2.0 4.0 0.00 0.02 0.02 58 1013.6
20260905160025 93 338 3.0 6.0 0.00 0.02 0.02 61 1013.7
20260905155739 93 238 3.0 6.0 0.00 0.02 0.02 60 1013.8
20260905155021 93 242 2.0 5.0 0.00 0.02 0.02 63 1013.7
20260905154738 92 223 2.0 5.0 0.00 0.02 0.02 66 1013.8